This demonstration page uses our WeatherBlox Daily Observations layout. Learn more.

Left ArrowRight Arrow

Hourly Observations for September 6, 2015

Temp ( °F °C ) Dew Point ( °F °C ) Humidity (%) Winds ( mph kmh ) Pressure ( in mb ) Visibility ( mi km ) Precip ( " mm )
12:59 am 00:59 Mostly Cloudy 76 24.4 69 20.6 79 79 NE 13 20 30.15 1021 10 16 0.00 0.00
1:59 am 01:59 Mostly Cloudy 76 24.4 69 20.6 79 79 NNE 9 15 30.14 1021 10 16 0.00 0.00
2:59 am 02:59 Cloudy 76 24.4 69 20.6 79 79 NNE 12 19 30.14 1021 10 16 0.00 0.00
3:59 am 03:59 Cloudy 76 24.4 70 21.1 82 82 NNE 12 19 30.13 1020 10 16 0.00 0.00
4:59 am 04:59 Cloudy 77 25 70 21.1 79 79 NNE 10 17 30.13 1020 10 16 0.00 0.00
5:59 am 05:59 Cloudy 76 24.4 70 21.1 82 82 NNE 8 13 30.14 1021 10 16 0.00 0.00
6:59 am 06:59 Cloudy 77 25 70 21.1 79 79 NNE 10 17 30.14 1021 9 14 0.00 0.00
7:59 am 07:59 Cloudy 77 25 70 21.1 79 79 NNE 10 17 30.15 1021 9 14 0.00 0.00
8:59 am 08:59 Cloudy 78 25.6 70 21.1 76 76 NNE 12 19 30.16 1021 9 14 0.00 0.00
9:41 am 09:41 Cloudy with Light Rain 76 24.4 71 21.7 85 85 NE 12 19 30.18 1022 5 8 0.00 0.03
9:59 am 09:59 Cloudy with Light Rain 76 24.4 72 22.2 88 88 ENE 6 9 30.16 1022 3 5 0.01 0.25
10:59 am 10:59 Cloudy 79 26.1 71 21.7 77 77 NNE 9 15 30.18 1022 9 14 0.00 0.03
11:59 am 11:59 Cloudy with Light Rain 77 25 72 22.2 85 85 NE 12 19 30.18 1022 5 8 0.00 0.03
12:29 pm 12:29 Cloudy with Rain 75 23.9 73 22.8 94 94 NE 7 11 30.18 1022 2 3 0.12 3.05
12:59 pm 12:59 Cloudy with Rain 75 23.9 71 21.7 88 88 NE 12 19 30.17 1022 2 3 0.15 3.81
1:34 pm 13:34 Cloudy with Light Rain 75 23.9 71 21.7 88 88 NE 13 20 30.18 1022 4 6 0.01 0.25
1:59 pm 13:59 Cloudy with Mist and Fog 75 23.9 71 21.7 88 88 NNE 12 19 30.17 1022 5 8 0.02 0.51
2:59 pm 14:59 Cloudy 77 25 70 21.1 79 79 ENE 10 17 30.16 1022 7 11 0.00 0.00
3:59 pm 15:59 Cloudy 76 24.4 70 21.1 82 82 NE 14 22 30.16 1021 7 11 0.00 0.03
4:59 pm 16:59 Cloudy 77 25 69 20.6 77 77 ENE 12 19 30.16 1021 10 16 0.00 0.00
5:59 pm 17:59 Cloudy 77 25 69 20.6 77 77 ENE 10 17 30.16 1021 10 16 0.00 0.00
6:59 pm 18:59 Cloudy 78 25.6 69 20.6 74 74 ENE 8 13 30.15 1021 10 16 0.00 0.00
7:59 pm 19:59 Cloudy 78 25.6 69 20.6 74 74 E 8 13 30.14 1021 10 16 0.00 0.00
8:59 pm 20:59 Mostly Cloudy 78 25.6 68 20 71 71 E 7 11 30.15 1021 10 16 0.00 0.00
9:59 pm 21:59 Cloudy 77 25 68 20 74 74 E 6 9 30.16 1021 10 16 0.00 0.00
10:59 pm 22:59 Cloudy 78 25.6 68 20 71 71 E 7 11 30.15 1021 10 16 0.00 0.00
11:59 pm 23:59 Mostly Cloudy 76 24.4 68 20 77 77 E 6 9 30.14 1021 10 16 0.00 0.00

Powered by AerisWeather